Skip Page Navigation
NASA JPL Caltech
NASA Logo - Jet Propulsion Laboratory + View the NASA Portal
+ Near-Earth Object (NEO) Program
Search JPL
JPL Home Earth Solar System Stars & Galaxies Technology
JPL Solar System Dynamics
BODIES ORBITS EPHEMERIDES TOOLS PHYSICAL DATA DISCOVERY FAQ SITE MAP
JPL Small-Body Database Browser
Search: [ help ]  
249010 Abdel-Samad (2007 QE5)
Classification: Main-belt Asteroid          SPK-ID: 2249010
Ephemeris | Orbit Diagram | Orbital Elements | Physical Parameters | Discovery Circumstances ]

[ show orbit diagram ]
Orbital Elements at Epoch 2457000.5 (2014-Dec-09.0) TDB
Reference: JPL 6 (heliocentric ecliptic J2000)
 Element Value Uncertainty (1-sigma)   Units 
e .02956020150665877 1.4143e-07  
a 3.018066098019884 5.873e-08 AU
q 2.928851456002001 4.3793e-07 AU
i 7.816881655922117 9.2711e-06 deg
node 255.6018532035729 9.0069e-05 deg
peri 66.69505697100698 0.00020916 deg
M 157.5894546543433 0.00019209 deg
tp 2456162.167700435512
(2012-Aug-22.66770044)
0.0010095 JED
period 1915.100401262147
5.24
5.59e-05
1.53e-07
d
yr
n .1879797005748326 5.4869e-09 deg/d
Q 3.107280740037767 6.0466e-08 AU
  Orbit Determination Parameters
   # obs. used (total)      142  
   data-arc span      4552 days (12.46 yr)  
   first obs. used      2002-09-03  
   last obs. used      2015-02-19  
   planetary ephem.      DE431  
   SB-pert. ephem.      SB431-BIG16  
   condition code      0  
   fit RMS      .63477  
   data source      ORB  
   producer      Otto Matic  
   solution date      2015-Mar-09 22:42:37  

Additional Information
 Earth MOID = 1.92675 AU 
 T_jup = 3.232 
[ show covariance matrix ]

Ephemeris | Orbit Diagram | Orbital Elements | Physical Parameters | Discovery Circumstances ]

Physical Parameter Table
Parameter Symbol Value Units Sigma Reference Notes
absolute magnitude H 16.2 mag n/a MPO326118  

249010 Abdel-Samad           Discovered 2007 Aug. 26 by R. Apitzsch at Wildberg.
Hamed Abdel-Samad (b. 1972) is an Egyptian political scientist whose satirical German TV series "Safary through Germany" has initiated a broad national discussion.
NOTE: some special characters may not display properly (any characters within {} are an attempt to place the proper accent above a character)
Reference: 20110218/MPCPages.arcLast Updated: 2011-02-22

Alternate Designations
 2007 QE5 = 2007 QK3 
Ephemeris | Orbit Diagram | Orbital Elements | Physical Parameters | Discovery Circumstances ]
ABOUT SSD CREDITS/AWARDS PRIVACY/COPYRIGHT GLOSSARY LINKS
FirstGov 2015-Mar-27 19:07 UT
(server date/time)  
NASA Home Page
Site Manager:   Ryan S. Park
Webmaster  Alan B. Chamberlin